Time,TemperatureF,DewpointF,PressureIn,WindDirection,WindDirectionDegrees,WindSpeedMPH,WindSpeedGustMPH,Humidity,HourlyPrecipIn,Conditions,Clouds,dailyrainin,SolarRadiationWatts/m^2,SoftwareType,DateUTC
2013-08-16 00:01:00,60.4,47.7,30.11,SW,221,0.0,1.0,63,0.00,FEW,,0.00,0.0,WeatherDisplay:10.37,2013-08-16 04:01:00,
2013-08-16 00:06:00,60.3,47.7,30.11,SW,221,0.0,0.0,63,0.00,FEW,,0.00,0.0,WeatherDisplay:10.37,2013-08-16 04:06:00,
2013-08-16 00:11:00,60.3,47.6,30.11,SW,221,0.0,0.0,63,0.00,FEW,,0.00,0.0,WeatherDisplay:10.37,2013-08-16 04:11:00,
2013-08-16 00:16:00,60.1,47.5,30.11,SW,221,0.0,0.0,63,0.00,FEW,,0.00,0.0,WeatherDisplay:10.37,2013-08-16 04:16:00,
2013-08-16 00:21:00,60.0,47.8,30.11,SW,221,0.0,0.0,64,0.00,FEW,,0.00,0.0,WeatherDisplay:10.37,2013-08-16 04:21:00,
2013-08-16 00:26:00,59.7,47.9,30.11,SW,221,0.0,1.0,65,0.00,FEW,,0.00,0.0,WeatherDisplay:10.37,2013-08-16 04:26:00,
2013-08-16 00:31:00,59.5,47.7,30.11,SW,221,0.0,2.0,65,0.00,FEW,,0.00,0.0,WeatherDisplay:10.37,2013-08-16 04:31:00,
2013-08-16 00:36:00,59.2,47.8,30.11,SW,221,0.0,0.0,66,0.00,FEW,,0.00,0.0,WeatherDisplay:10.37,2013-08-16 04:36:00,
2013-08-16 00:41:00,59.0,48.1,30.11,SW,221,0.0,1.0,67,0.00,FEW,,0.00,0.0,WeatherDisplay:10.37,2013-08-16 04:41:00,
2013-08-16 00:46:00,58.7,47.8,30.11,SW,221,0.0,0.0,67,0.00,FEW,,0.00,0.0,WeatherDisplay:10.37,2013-08-16 04:46:00,
2013-08-16 00:51:00,58.6,48.1,30.11,SW,221,0.0,3.0,68,0.00,FEW,,0.00,0.0,WeatherDisplay:10.37,2013-08-16 04:51:00,
2013-08-16 00:56:00,58.6,48.1,30.11,SW,221,0.0,3.0,68,0.00,FEW,,0.00,0.0,WeatherDisplay:10.37,2013-08-16 04:56:00,
2013-08-16 01:01:00,58.4,48.3,30.11,SW,221,0.0,2.0,69,0.00,FEW,,0.00,0.0,WeatherDisplay:10.37,2013-08-16 05:01:00,
2013-08-16 01:06:00,58.3,48.2,30.11,SW,221,0.0,3.0,69,0.00,FEW,,0.00,0.0,WeatherDisplay:10.37,2013-08-16 05:06:00,
2013-08-16 01:11:00,58.1,48.0,30.11,SW,221,0.0,0.0,69,0.00,FEW,,0.00,0.0,WeatherDisplay:10.37,2013-08-16 05:11:00,
2013-08-16 01:16:00,58.1,48.0,30.10,SW,221,0.0,0.0,69,0.00,FEW,,0.00,0.0,WeatherDisplay:10.37,2013-08-16 05:16:00,
2013-08-16 01:21:00,58.1,47.6,30.10,SW,221,0.0,2.0,68,0.00,FEW,,0.00,0.0,WeatherDisplay:10.37,2013-08-16 05:21:00,
2013-08-16 01:26:00,58.1,47.6,30.10,SW,221,0.0,2.0,68,0.00,FEW,,0.00,0.0,WeatherDisplay:10.37,2013-08-16 05:26:00,
2013-08-16 01:36:00,58.3,47.4,30.10,SW,221,0.0,1.0,67,0.00,SKC,,0.00,0.0,WeatherDisplay:10.37,2013-08-16 05:36:00,
2013-08-16 01:41:00,58.1,47.2,30.10,SW,221,0.0,0.0,67,0.00,SKC,,0.00,0.0,WeatherDisplay:10.37,2013-08-16 05:41:00,
2013-08-16 01:46:00,58.1,47.2,30.10,SW,221,0.0,1.0,67,0.00,SKC,,0.00,0.0,WeatherDisplay:10.37,2013-08-16 05:46:00,
2013-08-16 01:51:00,58.1,47.2,30.10,SW,221,0.0,3.0,67,0.00,SKC,,0.00,0.0,WeatherDisplay:10.37,2013-08-16 05:51:00,
2013-08-16 01:56:00,58.1,47.2,30.10,SW,221,0.0,3.0,67,0.00,SKC,,0.00,0.0,WeatherDisplay:10.37,2013-08-16 05:56:00,
2013-08-16 02:01:00,58.1,47.2,30.10,SW,221,0.0,1.0,67,0.00,SKC,,0.00,0.0,WeatherDisplay:10.37,2013-08-16 06:01:00,
2013-08-16 02:06:00,58.1,47.1,30.10,SW,221,0.0,0.0,67,0.00,SKC,,0.00,0.0,WeatherDisplay:10.37,2013-08-16 06:06:00,
2013-08-16 02:11:00,58.0,47.1,30.10,SW,221,0.0,0.0,67,0.00,SKC,,0.00,0.0,WeatherDisplay:10.37,2013-08-16 06:11:00,
2013-08-16 02:16:00,57.9,47.0,30.10,SW,221,0.0,3.0,67,0.00,SKC,,0.00,0.0,WeatherDisplay:10.37,2013-08-16 06:16:00,
2013-08-16 02:21:00,57.8,47.3,30.10,SW,221,0.0,0.0,68,0.00,FEW,,0.00,0.0,WeatherDisplay:10.37,2013-08-16 06:21:00,
2013-08-16 02:26:00,57.7,47.6,30.10,SW,221,0.0,0.0,69,0.00,FEW,,0.00,0.0,WeatherDisplay:10.37,2013-08-16 06:26:00,
2013-08-16 02:31:00,57.6,47.9,30.10,SW,221,0.0,0.0,70,0.00,FEW,,0.00,0.0,WeatherDisplay:10.37,2013-08-16 06:31:00,
2013-08-16 02:36:00,57.5,48.2,30.10,SW,221,0.0,0.0,71,0.00,FEW,,0.00,0.0,WeatherDisplay:10.37,2013-08-16 06:36:00,
2013-08-16 02:41:00,57.4,48.8,30.10,SW,221,0.0,0.0,73,0.00,FEW,,0.00,0.0,WeatherDisplay:10.37,2013-08-16 06:41:00,
2013-08-16 02:46:00,57.4,48.8,30.10,SW,221,0.0,0.0,73,0.00,FEW,,0.00,0.0,WeatherDisplay:10.37,2013-08-16 06:46:00,
2013-08-16 02:51:00,57.4,49.2,30.10,SW,221,0.0,0.0,74,0.00,FEW,,0.00,0.0,WeatherDisplay:10.37,2013-08-16 06:51:00,
2013-08-16 02:56:00,57.4,49.2,30.10,SW,221,0.0,0.0,74,0.00,FEW,,0.00,0.0,WeatherDisplay:10.37,2013-08-16 06:56:00,
2013-08-16 03:01:00,57.4,49.5,30.10,SW,221,0.0,0.0,75,0.00,FEW,,0.00,0.0,WeatherDisplay:10.37,2013-08-16 07:01:00,
2013-08-16 03:06:00,57.4,49.9,30.10,SW,221,0.0,0.0,76,0.00,FEW,,0.00,0.0,WeatherDisplay:10.37,2013-08-16 07:06:00,
2013-08-16 03:11:00,57.5,50.0,30.10,SW,221,1.0,3.0,76,0.00,FEW,,0.00,0.0,WeatherDisplay:10.37,2013-08-16 07:11:00,
2013-08-16 03:16:00,57.6,50.1,30.10,SW,221,0.0,0.0,76,0.00,FEW,,0.00,0.0,WeatherDisplay:10.37,2013-08-16 07:16:00,
2013-08-16 03:21:00,57.8,50.2,30.10,SW,221,0.0,2.0,76,0.00,FEW,,0.00,0.0,WeatherDisplay:10.37,2013-08-16 07:21:00,
2013-08-16 03:26:00,58.0,50.5,30.10,SW,221,0.0,0.0,76,0.00,FEW,,0.00,0.0,WeatherDisplay:10.37,2013-08-16 07:26:00,
2013-08-16 03:31:00,58.0,50.5,30.10,SW,221,0.0,1.0,76,0.00,FEW,,0.00,0.0,WeatherDisplay:10.37,2013-08-16 07:31:00,
2013-08-16 03:36:00,58.1,50.2,30.10,SW,221,0.0,3.0,75,0.00,FEW,,0.00,0.0,WeatherDisplay:10.37,2013-08-16 07:36:00,
2013-08-16 03:41:00,58.3,50.4,30.10,SW,221,0.0,2.0,75,0.00,FEW,,0.00,0.0,WeatherDisplay:10.37,2013-08-16 07:41:00,
2013-08-16 03:46:00,58.3,50.0,30.10,SW,221,0.0,1.0,74,0.00,FEW,,0.00,0.0,WeatherDisplay:10.37,2013-08-16 07:46:00,
2013-08-16 03:51:00,58.3,50.0,30.10,SW,221,0.0,1.0,74,0.00,FEW,,0.00,0.0,WeatherDisplay:10.37,2013-08-16 07:51:00,
2013-08-16 03:56:00,58.3,50.0,30.10,SW,221,0.0,2.0,74,0.00,FEW,,0.00,0.0,WeatherDisplay:10.37,2013-08-16 07:56:00,
2013-08-16 04:01:00,58.3,50.0,30.10,SW,221,0.0,1.0,74,0.00,FEW,,0.00,0.0,WeatherDisplay:10.37,2013-08-16 08:01:00,
2013-08-16 04:06:00,58.3,50.0,30.10,SW,221,0.0,2.0,74,0.00,FEW,,0.00,0.0,WeatherDisplay:10.37,2013-08-16 08:06:00,
2013-08-16 04:11:00,58.3,50.0,30.10,SW,221,0.0,1.0,74,0.00,FEW,,0.00,0.0,WeatherDisplay:10.37,2013-08-16 08:11:00,
2013-08-16 04:16:00,58.1,49.9,30.10,SW,221,0.0,1.0,74,0.00,FEW,,0.00,0.0,WeatherDisplay:10.37,2013-08-16 08:16:00,
2013-08-16 04:21:00,58.1,49.9,30.10,SW,221,0.0,0.0,74,0.00,SCT,,0.00,0.0,WeatherDisplay:10.37,2013-08-16 08:21:00,
2013-08-16 04:26:00,58.1,49.9,30.10,SW,221,0.0,0.0,74,0.00,SCT,,0.00,0.0,WeatherDisplay:10.37,2013-08-16 08:26:00,
2013-08-16 04:31:00,58.1,49.9,30.10,SW,221,0.0,1.0,74,0.00,SCT,,0.00,0.0,WeatherDisplay:10.37,2013-08-16 08:31:00,
2013-08-16 04:36:00,58.1,50.2,30.10,SW,221,0.0,0.0,75,0.00,SCT,,0.00,0.0,WeatherDisplay:10.37,2013-08-16 08:36:00,
2013-08-16 04:41:00,58.1,50.2,30.10,SW,221,0.0,0.0,75,0.00,SCT,,0.00,0.0,WeatherDisplay:10.37,2013-08-16 08:41:00,
2013-08-16 04:46:00,58.0,50.1,30.10,SW,221,0.0,2.0,75,0.00,SCT,,0.00,0.0,WeatherDisplay:10.37,2013-08-16 08:46:00,
2013-08-16 04:51:00,58.0,50.1,30.10,SW,221,0.0,0.0,75,0.00,SCT,,0.00,0.0,WeatherDisplay:10.37,2013-08-16 08:51:00,
2013-08-16 04:56:00,57.9,50.0,30.10,SW,221,0.0,3.0,75,0.00,SCT,,0.00,0.0,WeatherDisplay:10.37,2013-08-16 08:56:00,
2013-08-16 05:01:00,57.8,49.9,30.10,SW,221,0.0,0.0,75,0.00,SCT,,0.00,0.0,WeatherDisplay:10.37,2013-08-16 09:01:00,
2013-08-16 05:06:00,57.8,49.9,30.10,SW,221,0.0,0.0,75,0.00,SCT,,0.00,0.0,WeatherDisplay:10.37,2013-08-16 09:06:00,
2013-08-16 05:11:00,57.8,50.3,30.10,SW,221,0.0,0.0,76,0.00,SCT,,0.00,0.0,WeatherDisplay:10.37,2013-08-16 09:11:00,
2013-08-16 05:16:00,57.7,50.2,30.11,SW,221,0.0,0.0,76,0.00,SCT,,0.00,0.0,WeatherDisplay:10.37,2013-08-16 09:16:00,
2013-08-16 05:21:00,57.7,50.2,30.11,SW,221,0.0,1.0,76,0.00,SCT,,0.00,0.0,WeatherDisplay:10.37,2013-08-16 09:21:00,
2013-08-16 05:26:00,57.7,50.2,30.11,SW,221,0.0,3.0,76,0.00,SCT,,0.00,0.0,WeatherDisplay:10.37,2013-08-16 09:26:00,
2013-08-16 05:31:00,57.7,50.2,30.11,SW,221,0.0,1.0,76,0.00,SCT,,0.00,0.0,WeatherDisplay:10.37,2013-08-16 09:31:00,
2013-08-16 05:36:00,57.5,50.0,30.11,SW,221,0.0,0.0,76,0.00,BKN,,0.00,0.0,WeatherDisplay:10.37,2013-08-16 09:36:00,
2013-08-16 05:41:00,57.5,50.0,30.11,SW,221,0.0,0.0,76,0.00,BKN,,0.00,0.0,WeatherDisplay:10.37,2013-08-16 09:41:00,
2013-08-16 05:46:00,57.4,49.9,30.12,SW,221,0.0,0.0,76,0.00,BKN,,0.00,0.0,WeatherDisplay:10.37,2013-08-16 09:46:00,
2013-08-16 05:51:00,57.2,50.1,30.12,SW,221,0.0,0.0,77,0.00,BKN,,0.00,0.0,WeatherDisplay:10.37,2013-08-16 09:51:00,
2013-08-16 05:56:00,57.1,50.3,30.12,SW,221,0.0,0.0,78,0.00,BKN,,0.00,0.0,WeatherDisplay:10.37,2013-08-16 09:56:00,
2013-08-16 06:01:00,56.9,50.1,30.12,SW,221,0.0,0.0,78,0.00,BKN,,0.00,0.0,WeatherDisplay:10.37,2013-08-16 10:01:00,
2013-08-16 06:06:00,56.9,50.1,30.12,SW,221,0.0,0.0,78,0.00,BKN,,0.00,0.0,WeatherDisplay:10.37,2013-08-16 10:06:00,
2013-08-16 06:11:00,56.9,50.1,30.12,SW,221,0.0,0.0,78,0.00,BKN,,0.00,0.0,WeatherDisplay:10.37,2013-08-16 10:11:00,
2013-08-16 06:16:00,57.1,50.3,30.12,SW,221,0.0,0.0,78,0.00,BKN,,0.00,0.0,WeatherDisplay:10.37,2013-08-16 10:16:00,
2013-08-16 06:21:00,57.1,50.3,30.12,SW,221,0.0,1.0,78,0.00,BKN,,0.00,0.0,WeatherDisplay:10.37,2013-08-16 10:21:00,
2013-08-16 06:26:00,57.1,50.0,30.12,SW,221,0.0,0.0,77,0.00,BKN,,0.00,0.0,WeatherDisplay:10.37,2013-08-16 10:26:00,
2013-08-16 06:31:00,57.1,50.0,30.12,SW,221,0.0,0.0,77,0.00,BKN,,0.00,0.0,WeatherDisplay:10.37,2013-08-16 10:31:00,
2013-08-16 06:36:00,57.1,50.3,30.12,SW,221,0.0,0.0,78,0.00,BKN,,0.00,0.0,WeatherDisplay:10.37,2013-08-16 10:36:00,
2013-08-16 06:41:00,57.2,50.1,30.12,SW,221,0.0,0.0,77,0.00,BKN,,0.00,0.0,WeatherDisplay:10.37,2013-08-16 10:41:00,
2013-08-16 06:46:00,57.2,50.1,30.13,SW,221,0.0,0.0,77,0.00,BKN,,0.00,0.0,WeatherDisplay:10.37,2013-08-16 10:46:00,
2013-08-16 06:51:00,57.5,50.0,30.13,SW,221,0.0,1.0,76,0.00,BKN,,0.00,0.0,WeatherDisplay:10.37,2013-08-16 10:51:00,
2013-08-16 06:56:00,57.8,50.3,30.13,SW,221,0.0,0.0,76,0.00,BKN,,0.00,0.0,WeatherDisplay:10.37,2013-08-16 10:56:00,
2013-08-16 07:01:00,58.0,50.5,30.13,SW,221,0.0,0.0,76,0.00,BKN,,0.00,0.0,WeatherDisplay:10.37,2013-08-16 11:01:00,
2013-08-16 07:06:00,58.1,50.6,30.13,SW,221,0.0,0.0,76,0.00,BKN,,0.00,0.0,WeatherDisplay:10.37,2013-08-16 11:06:00,
2013-08-16 07:11:00,58.2,50.7,30.13,SW,221,0.0,0.0,76,0.00,BKN,,0.00,0.0,WeatherDisplay:10.37,2013-08-16 11:11:00,
2013-08-16 07:16:00,58.3,50.5,30.13,SW,221,0.0,0.0,75,0.00,BKN,,0.00,0.0,WeatherDisplay:10.37,2013-08-16 11:16:00,
2013-08-16 07:21:00,58.6,50.7,30.13,SW,221,0.0,0.0,75,0.00,BKN,,0.00,0.0,WeatherDisplay:10.37,2013-08-16 11:21:00,
2013-08-16 07:26:00,58.9,50.6,30.13,SW,221,0.0,0.0,74,0.00,BKN,,0.00,0.0,WeatherDisplay:10.37,2013-08-16 11:26:00,
2013-08-16 07:31:00,59.0,50.7,30.13,SW,221,0.0,0.0,74,0.00,BKN,,0.00,0.0,WeatherDisplay:10.37,2013-08-16 11:31:00,
2013-08-16 07:41:00,59.5,50.5,30.13,SW,221,1.0,4.0,72,0.00,SCT,,0.00,0.0,WeatherDisplay:10.37,2013-08-16 11:41:00,
2013-08-16 07:46:00,59.7,50.7,30.13,SW,221,2.0,6.0,72,0.00,SCT,,0.00,0.0,WeatherDisplay:10.37,2013-08-16 11:46:00,
2013-08-16 07:51:00,60.0,50.6,30.13,SW,221,0.0,6.0,71,0.00,SCT,,0.00,0.0,WeatherDisplay:10.37,2013-08-16 11:51:00,
2013-08-16 07:56:00,60.1,50.7,30.13,SW,221,0.0,0.0,71,0.00,SCT,,0.00,0.0,WeatherDisplay:10.37,2013-08-16 11:56:00,
2013-08-16 08:06:00,60.4,51.0,30.14,SW,221,0.0,0.0,71,0.00,SCT,,0.00,0.0,WeatherDisplay:10.37,2013-08-16 12:06:00,
2013-08-16 08:11:00,60.6,50.8,30.14,SW,221,0.0,4.0,70,0.00,SCT,,0.00,0.0,WeatherDisplay:10.37,2013-08-16 12:11:00,
2013-08-16 08:16:00,61.0,50.8,30.14,SW,221,0.0,3.0,69,0.00,SCT,,0.00,0.0,WeatherDisplay:10.37,2013-08-16 12:16:00,
2013-08-16 08:21:00,61.4,51.1,30.14,SW,221,0.0,5.0,69,0.00,FEW,,0.00,0.0,WeatherDisplay:10.37,2013-08-16 12:21:00,
2013-08-16 08:26:00,61.9,51.2,30.14,SW,221,0.0,5.0,68,0.00,FEW,,0.00,0.0,WeatherDisplay:10.37,2013-08-16 12:26:00,
2013-08-16 08:31:00,62.3,50.8,30.14,SW,221,2.0,6.0,66,0.00,FEW,,0.00,0.0,WeatherDisplay:10.37,2013-08-16 12:31:00,
2013-08-16 08:36:00,62.8,51.3,30.14,SW,221,1.0,5.0,66,0.00,FEW,,0.00,0.0,WeatherDisplay:10.37,2013-08-16 12:36:00,
2013-08-16 08:41:00,63.1,51.6,30.14,SW,221,1.0,3.0,66,0.00,FEW,,0.00,0.0,WeatherDisplay:10.37,2013-08-16 12:41:00,
2013-08-16 08:46:00,63.1,51.1,30.15,SW,221,3.0,6.0,65,0.00,FEW,,0.00,0.0,WeatherDisplay:10.37,2013-08-16 12:46:00,
2013-08-16 08:51:00,63.0,51.5,30.15,SW,221,1.0,4.0,66,0.00,FEW,,0.00,0.0,WeatherDisplay:10.37,2013-08-16 12:51:00,
2013-08-16 09:01:00,62.8,51.3,30.15,SW,221,0.0,0.0,66,0.00,FEW,,0.00,0.0,WeatherDisplay:10.37,2013-08-16 13:01:00,
2013-08-16 09:06:00,63.0,51.9,30.15,SW,221,0.0,0.0,67,0.00,FEW,,0.00,0.0,WeatherDisplay:10.37,2013-08-16 13:06:00,
2013-08-16 09:11:00,63.3,52.2,30.15,SW,221,0.0,2.0,67,0.00,FEW,,0.00,0.0,WeatherDisplay:10.37,2013-08-16 13:11:00,
2013-08-16 09:16:00,63.9,52.4,30.15,SW,221,0.0,2.0,66,0.00,FEW,,0.00,0.0,WeatherDisplay:10.37,2013-08-16 13:16:00,
2013-08-16 09:21:00,64.5,52.8,30.15,SW,221,0.0,3.0,66,0.00,FEW,,0.00,0.0,WeatherDisplay:10.37,2013-08-16 13:21:00,
2013-08-16 09:26:00,65.3,53.2,30.15,SW,228,3.0,6.0,65,0.00,FEW,,0.00,0.0,WeatherDisplay:10.37,2013-08-16 13:26:00,
2013-08-16 09:31:00,66.1,53.2,30.15,WSW,239,3.0,7.0,63,0.00,FEW,,0.00,0.0,WeatherDisplay:10.37,2013-08-16 13:31:00,
2013-08-16 09:36:00,66.9,53.0,30.15,WSW,253,6.0,9.0,61,0.00,FEW,,0.00,0.0,WeatherDisplay:10.37,2013-08-16 13:36:00,
2013-08-16 09:41:00,67.4,53.5,30.15,WSW,254,0.0,9.0,61,0.00,FEW,,0.00,0.0,WeatherDisplay:10.37,2013-08-16 13:41:00,
2013-08-16 09:46:00,67.9,54.0,30.15,WSW,252,1.0,7.0,61,0.00,FEW,,0.00,0.0,WeatherDisplay:10.37,2013-08-16 13:46:00,
2013-08-16 09:51:00,68.2,54.2,30.15,WSW,255,2.0,7.0,61,0.00,FEW,,0.00,0.0,WeatherDisplay:10.37,2013-08-16 13:51:00,
2013-08-16 09:56:00,68.4,54.4,30.15,WSW,254,1.0,6.0,61,0.00,FEW,,0.00,0.0,WeatherDisplay:10.37,2013-08-16 13:56:00,
2013-08-16 10:01:00,68.7,53.8,30.15,WSW,248,2.0,7.0,59,0.00,FEW,,0.00,0.0,WeatherDisplay:10.37,2013-08-16 14:01:00,
2013-08-16 10:06:00,69.1,54.2,30.15,WSW,258,2.0,8.0,59,0.00,FEW,,0.00,0.0,WeatherDisplay:10.37,2013-08-16 14:06:00,
2013-08-16 10:11:00,69.2,53.3,30.15,WSW,253,3.0,8.0,57,0.00,FEW,,0.00,0.0,WeatherDisplay:10.37,2013-08-16 14:11:00,
2013-08-16 10:16:00,69.4,54.0,30.15,WSW,247,3.0,8.0,58,0.00,FEW,,0.00,0.0,WeatherDisplay:10.37,2013-08-16 14:16:00,
2013-08-16 10:21:00,69.7,54.3,30.15,WSW,250,0.0,5.0,58,0.00,FEW,,0.00,0.0,WeatherDisplay:10.37,2013-08-16 14:21:00,
2013-08-16 10:26:00,70.3,55.3,30.15,WSW,250,1.0,4.0,59,0.00,FEW,,0.00,0.0,WeatherDisplay:10.37,2013-08-16 14:26:00,
2013-08-16 10:36:00,70.8,54.8,30.16,WSW,251,2.0,4.0,57,0.00,FEW,,0.00,0.0,WeatherDisplay:10.37,2013-08-16 14:36:00,
2013-08-16 10:41:00,70.9,53.9,30.16,West,261,3.0,7.0,55,0.00,FEW,,0.00,0.0,WeatherDisplay:10.37,2013-08-16 14:41:00,
2013-08-16 10:46:00,71.2,54.2,30.16,West,260,1.0,7.0,55,0.00,FEW,,0.00,0.0,WeatherDisplay:10.37,2013-08-16 14:46:00,
2013-08-16 10:51:00,71.5,54.0,30.16,West,259,1.0,6.0,54,0.00,FEW,,0.00,0.0,WeatherDisplay:10.37,2013-08-16 14:51:00,
2013-08-16 10:56:00,71.8,55.3,30.16,WSW,256,3.0,8.0,56,0.00,FEW,,0.00,0.0,WeatherDisplay:10.37,2013-08-16 14:56:00,
2013-08-16 11:01:00,72.0,54.9,30.16,WSW,254,1.0,8.0,55,0.00,FEW,,0.00,0.0,WeatherDisplay:10.37,2013-08-16 15:01:00,
2013-08-16 11:06:00,72.0,53.9,30.16,WSW,252,1.0,8.0,53,0.00,FEW,,0.00,0.0,WeatherDisplay:10.37,2013-08-16 15:06:00,
2013-08-16 11:11:00,72.1,54.0,30.16,WSW,248,1.0,5.0,53,0.00,FEW,,0.00,0.0,WeatherDisplay:10.37,2013-08-16 15:11:00,
2013-08-16 11:16:00,72.3,54.2,30.16,WSW,253,1.0,7.0,53,0.00,FEW,,0.00,0.0,WeatherDisplay:10.37,2013-08-16 15:16:00,
2013-08-16 11:21:00,72.7,54.6,30.16,WSW,254,1.0,5.0,53,0.00,FEW,,0.00,0.0,WeatherDisplay:10.37,2013-08-16 15:21:00,
2013-08-16 11:26:00,72.8,54.7,30.16,WSW,253,5.0,8.0,53,0.00,FEW,,0.00,0.0,WeatherDisplay:10.37,2013-08-16 15:26:00,
2013-08-16 11:31:00,73.0,53.8,30.16,WSW,254,1.0,7.0,51,0.00,FEW,,0.00,0.0,WeatherDisplay:10.37,2013-08-16 15:31:00,
2013-08-16 11:36:00,73.0,53.3,30.16,WSW,252,1.0,7.0,50,0.00,FEW,,0.00,0.0,WeatherDisplay:10.37,2013-08-16 15:36:00,
2013-08-16 11:41:00,73.1,53.4,30.16,WSW,250,0.0,4.0,50,0.00,FEW,,0.00,0.0,WeatherDisplay:10.37,2013-08-16 15:41:00,
2013-08-16 11:46:00,73.4,54.2,30.16,WSW,252,5.0,6.0,51,0.00,FEW,,0.00,0.0,WeatherDisplay:10.37,2013-08-16 15:46:00,
2013-08-16 11:51:00,73.9,54.1,30.16,WSW,255,1.0,4.0,50,0.00,FEW,,0.00,0.0,WeatherDisplay:10.37,2013-08-16 15:51:00,
2013-08-16 11:56:00,74.2,53.2,30.16,WSW,256,0.0,4.0,48,0.00,FEW,,0.00,0.0,WeatherDisplay:10.37,2013-08-16 15:56:00,
2013-08-16 12:01:00,74.2,53.8,30.16,WSW,256,1.0,4.0,49,0.00,FEW,,0.00,0.0,WeatherDisplay:10.37,2013-08-16 16:01:00,
2013-08-16 12:06:00,74.1,53.7,30.16,WSW,257,2.0,6.0,49,0.00,FEW,,0.00,0.0,WeatherDisplay:10.37,2013-08-16 16:06:00,
2013-08-16 12:11:00,74.1,52.6,30.16,WSW,258,2.0,7.0,47,0.00,FEW,,0.00,0.0,WeatherDisplay:10.37,2013-08-16 16:11:00,
2013-08-16 12:16:00,74.1,52.6,30.16,WSW,254,3.0,9.0,47,0.00,FEW,,0.00,0.0,WeatherDisplay:10.37,2013-08-16 16:16:00,
2013-08-16 12:21:00,73.8,52.8,30.16,WSW,252,2.0,6.0,48,0.00,SCT,,0.00,0.0,WeatherDisplay:10.37,2013-08-16 16:21:00,
2013-08-16 12:26:00,73.5,55.3,30.16,WSW,255,0.0,3.0,53,0.00,SCT,,0.00,0.0,WeatherDisplay:10.37,2013-08-16 16:26:00,
2013-08-16 12:31:00,73.5,53.2,30.16,WSW,255,0.0,3.0,49,0.00,SCT,,0.00,0.0,WeatherDisplay:10.37,2013-08-16 16:31:00,
2013-08-16 12:36:00,73.7,55.0,30.16,NW,323,2.0,6.0,52,0.00,SCT,,0.00,0.0,WeatherDisplay:10.37,2013-08-16 16:36:00,
2013-08-16 12:41:00,73.9,54.1,30.16,North,350,2.0,6.0,50,0.00,SCT,,0.00,0.0,WeatherDisplay:10.37,2013-08-16 16:41:00,
2013-08-16 12:46:00,74.1,54.3,30.15,NNW,348,1.0,5.0,50,0.00,SCT,,0.00,0.0,WeatherDisplay:10.37,2013-08-16 16:46:00,
2013-08-16 12:51:00,74.4,54.0,30.15,NNW,327,2.0,6.0,49,0.00,SCT,,0.00,0.0,WeatherDisplay:10.37,2013-08-16 16:51:00,
2013-08-16 12:56:00,74.4,55.1,30.15,NW,310,1.0,6.0,51,0.00,SCT,,0.00,0.0,WeatherDisplay:10.37,2013-08-16 16:56:00,
2013-08-16 13:01:00,74.4,52.9,30.15,NW,305,2.0,5.0,47,0.00,SCT,,0.00,0.0,WeatherDisplay:10.37,2013-08-16 17:01:00,
2013-08-16 13:06:00,74.3,52.1,30.15,WNW,301,0.0,1.0,46,0.00,SCT,,0.00,0.0,WeatherDisplay:10.37,2013-08-16 17:06:00,
2013-08-16 13:11:00,74.8,52.0,30.15,WNW,301,0.0,2.0,45,0.00,SCT,,0.00,0.0,WeatherDisplay:10.37,2013-08-16 17:11:00,
2013-08-16 13:16:00,75.3,53.1,30.15,WNW,301,0.0,0.0,46,0.00,SCT,,0.00,0.0,WeatherDisplay:10.37,2013-08-16 17:16:00,
2013-08-16 13:21:00,75.7,54.7,30.15,WNW,299,1.0,6.0,48,0.00,SCT,,0.00,39.0,WeatherDisplay:10.37,2013-08-16 17:21:00,
2013-08-16 13:26:00,76.2,54.5,30.15,WNW,284,3.0,7.0,47,0.00,SCT,,0.00,0.0,WeatherDisplay:10.37,2013-08-16 17:26:00,
2013-08-16 13:31:00,76.0,53.7,30.15,West,272,0.0,6.0,46,0.00,SCT,,0.00,0.0,WeatherDisplay:10.37,2013-08-16 17:31:00,
2013-08-16 13:36:00,75.6,55.6,30.15,West,263,1.0,4.0,50,0.00,SCT,,0.00,40.0,WeatherDisplay:10.37,2013-08-16 17:36:00,
2013-08-16 13:41:00,75.9,55.4,30.15,West,263,2.0,4.0,49,0.00,SCT,,0.00,446.0,WeatherDisplay:10.37,2013-08-16 17:41:00,
2013-08-16 13:46:00,76.2,52.7,30.15,West,263,1.0,2.0,44,0.00,SCT,,0.00,432.0,WeatherDisplay:10.37,2013-08-16 17:46:00,
2013-08-16 13:51:00,76.0,53.7,30.15,West,263,1.0,3.0,46,0.00,SCT,,0.00,436.0,WeatherDisplay:10.37,2013-08-16 17:51:00,
2013-08-16 13:56:00,76.5,54.2,30.15,WNW,300,2.0,6.0,46,0.00,SCT,,0.00,443.0,WeatherDisplay:10.37,2013-08-16 17:56:00,
2013-08-16 14:01:00,76.5,51.7,30.15,WNW,299,0.0,1.0,42,0.00,SCT,,0.00,438.0,WeatherDisplay:10.37,2013-08-16 18:01:00,
2013-08-16 14:06:00,76.9,55.1,30.15,WNW,283,0.0,3.0,47,0.00,SCT,,0.00,445.0,WeatherDisplay:10.37,2013-08-16 18:06:00,
2013-08-16 14:11:00,77.3,56.1,30.15,WNW,284,0.0,3.0,48,0.00,SCT,,0.00,0.0,WeatherDisplay:10.37,2013-08-16 18:11:00,
2013-08-16 14:16:00,77.4,54.4,30.15,WNW,284,0.0,1.0,45,0.00,SCT,,0.00,51.0,WeatherDisplay:10.37,2013-08-16 18:16:00,
2013-08-16 14:21:00,77.3,54.9,30.15,WNW,289,2.0,4.0,46,0.00,SCT,,0.00,0.0,WeatherDisplay:10.37,2013-08-16 18:21:00,
2013-08-16 14:26:00,76.1,54.4,30.15,WNW,303,1.0,4.0,47,0.00,SCT,,0.00,0.0,WeatherDisplay:10.37,2013-08-16 18:26:00,
2013-08-16 14:31:00,75.2,54.7,30.15,NW,312,0.0,1.0,49,0.00,SCT,,0.00,452.0,WeatherDisplay:10.37,2013-08-16 18:31:00,
2013-08-16 14:36:00,75.1,55.8,30.15,NW,314,0.0,2.0,51,0.00,SCT,,0.00,441.0,WeatherDisplay:10.37,2013-08-16 18:36:00,
2013-08-16 14:41:00,75.5,54.4,30.15,NW,318,0.0,3.0,48,0.00,SCT,,0.00,422.0,WeatherDisplay:10.37,2013-08-16 18:41:00,
2013-08-16 14:46:00,75.8,54.7,30.15,North,352,3.0,7.0,48,0.00,SCT,,0.00,408.0,WeatherDisplay:10.37,2013-08-16 18:46:00,
2013-08-16 14:51:00,76.3,55.7,30.15,NNW,346,2.0,6.0,49,0.00,SCT,,0.00,403.0,WeatherDisplay:10.37,2013-08-16 18:51:00,
2013-08-16 15:01:00,77.1,53.5,30.15,North,358,5.0,6.0,44,0.00,SCT,,0.00,404.0,WeatherDisplay:10.37,2013-08-16 19:01:00,
2013-08-16 15:06:00,77.4,55.0,30.15,North,8,1.0,4.0,46,0.00,SCT,,0.00,390.0,WeatherDisplay:10.37,2013-08-16 19:06:00,
2013-08-16 15:11:00,77.6,52.7,30.15,North,1,0.0,2.0,42,0.00,SCT,,0.00,0.0,WeatherDisplay:10.37,2013-08-16 19:11:00,
2013-08-16 15:16:00,76.9,52.1,30.15,NNW,348,0.0,1.0,42,0.00,SCT,,0.00,0.0,WeatherDisplay:10.37,2013-08-16 19:16:00,
2013-08-16 15:21:00,76.5,53.0,30.15,NNW,346,0.0,0.0,44,0.00,SCT,,0.00,0.0,WeatherDisplay:10.37,2013-08-16 19:21:00,
2013-08-16 15:26:00,76.2,53.9,30.15,NNW,346,0.0,0.0,46,0.00,SCT,,0.00,0.0,WeatherDisplay:10.37,2013-08-16 19:26:00,
2013-08-16 15:36:00,75.6,56.7,30.15,WNW,298,0.0,5.0,52,0.00,SCT,,0.00,353.0,WeatherDisplay:10.37,2013-08-16 19:36:00,
2013-08-16 15:41:00,76.2,56.2,30.15,WSW,249,2.0,6.0,50,0.00,SCT,,0.00,325.0,WeatherDisplay:10.37,2013-08-16 19:41:00,
2013-08-16 15:46:00,76.7,56.7,30.15,SSW,212,2.0,5.0,50,0.00,SCT,,0.00,322.0,WeatherDisplay:10.37,2013-08-16 19:46:00,
2013-08-16 15:51:00,76.5,56.5,30.15,SSW,195,1.0,7.0,50,0.00,SCT,,0.00,315.0,WeatherDisplay:10.37,2013-08-16 19:51:00,
2013-08-16 15:56:00,76.7,56.6,30.15,SSW,201,2.0,8.0,50,0.00,SCT,,0.00,304.0,WeatherDisplay:10.37,2013-08-16 19:56:00,
2013-08-16 16:01:00,76.9,56.3,30.15,SSW,208,2.0,5.0,49,0.00,SCT,,0.00,294.0,WeatherDisplay:10.37,2013-08-16 20:01:00,
2013-08-16 16:06:00,76.2,56.2,30.15,South,188,5.0,9.0,50,0.00,SCT,,0.00,278.0,WeatherDisplay:10.37,2013-08-16 20:06:00,
2013-08-16 16:11:00,75.8,55.9,30.15,SSE,155,3.0,7.0,50,0.00,SCT,,0.00,248.0,WeatherDisplay:10.37,2013-08-16 20:11:00,
2013-08-16 16:16:00,75.7,56.9,30.15,SSE,162,1.0,7.0,52,0.00,SCT,,0.00,232.0,WeatherDisplay:10.37,2013-08-16 20:16:00,
2013-08-16 16:21:00,75.8,56.4,30.15,SSW,200,2.0,7.0,51,0.00,SCT,,0.00,220.0,WeatherDisplay:10.37,2013-08-16 20:21:00,
2013-08-16 16:26:00,76.1,56.7,30.15,SSW,198,5.0,10.0,51,0.00,SCT,,0.00,206.0,WeatherDisplay:10.37,2013-08-16 20:26:00,
2013-08-16 16:31:00,76.0,55.5,30.15,South,174,2.0,9.0,49,0.00,SCT,,0.00,193.0,WeatherDisplay:10.37,2013-08-16 20:31:00,
2013-08-16 16:36:00,75.8,55.3,30.15,South,177,3.0,10.0,49,0.00,SCT,,0.00,186.0,WeatherDisplay:10.37,2013-08-16 20:36:00,
2013-08-16 16:41:00,76.2,56.2,30.15,SSW,193,2.0,5.0,50,0.00,SCT,,0.00,171.0,WeatherDisplay:10.37,2013-08-16 20:41:00,
2013-08-16 16:46:00,76.1,55.5,30.15,SSW,199,3.0,8.0,49,0.00,SCT,,0.00,160.0,WeatherDisplay:10.37,2013-08-16 20:46:00,
2013-08-16 16:51:00,76.0,54.9,30.15,SSW,196,2.0,12.0,48,0.00,SCT,,0.00,142.0,WeatherDisplay:10.37,2013-08-16 20:51:00,
2013-08-16 16:56:00,75.9,54.8,30.15,SSW,202,2.0,12.0,48,0.00,SCT,,0.00,135.0,WeatherDisplay:10.37,2013-08-16 20:56:00,
2013-08-16 17:01:00,75.6,55.1,30.15,South,183,2.0,6.0,49,0.00,SCT,,0.00,118.0,WeatherDisplay:10.37,2013-08-16 21:01:00,
2013-08-16 17:06:00,75.5,55.0,30.15,SSW,194,1.0,7.0,49,0.00,SCT,,0.00,105.0,WeatherDisplay:10.37,2013-08-16 21:06:00,
2013-08-16 17:11:00,75.6,55.6,30.15,SSW,194,2.0,6.0,50,0.00,SCT,,0.00,95.0,WeatherDisplay:10.37,2013-08-16 21:11:00,
2013-08-16 17:16:00,75.6,55.1,30.15,South,186,2.0,8.0,49,0.00,SCT,,0.00,83.0,WeatherDisplay:10.37,2013-08-16 21:16:00,
2013-08-16 17:21:00,75.5,55.0,30.15,South,170,5.0,9.0,49,0.00,FEW,,0.00,67.0,WeatherDisplay:10.37,2013-08-16 21:21:00,
2013-08-16 17:26:00,75.2,55.3,30.15,SSE,166,1.0,6.0,50,0.00,FEW,,0.00,46.0,WeatherDisplay:10.37,2013-08-16 21:26:00,
2013-08-16 17:31:00,75.3,54.8,30.15,South,190,2.0,7.0,49,0.00,FEW,,0.00,32.0,WeatherDisplay:10.37,2013-08-16 21:31:00,
2013-08-16 17:36:00,75.6,54.5,30.15,SSW,193,1.0,5.0,48,0.00,FEW,,0.00,18.0,WeatherDisplay:10.37,2013-08-16 21:36:00,
2013-08-16 17:41:00,75.6,55.1,30.15,South,191,1.0,4.0,49,0.00,FEW,,0.00,0.0,WeatherDisplay:10.37,2013-08-16 21:41:00,
2013-08-16 17:46:00,75.9,54.8,30.15,South,189,0.0,4.0,48,0.00,FEW,,0.00,0.0,WeatherDisplay:10.37,2013-08-16 21:46:00,
2013-08-16 17:51:00,75.8,54.7,30.15,South,191,3.0,7.0,48,0.00,FEW,,0.00,0.0,WeatherDisplay:10.37,2013-08-16 21:51:00,
2013-08-16 17:56:00,75.5,53.9,30.15,South,173,1.0,7.0,47,0.00,FEW,,0.00,0.0,WeatherDisplay:10.37,2013-08-16 21:56:00,
2013-08-16 18:01:00,75.5,54.4,30.16,South,170,1.0,4.0,48,0.00,FEW,,0.00,0.0,WeatherDisplay:10.37,2013-08-16 22:01:00,
2013-08-16 18:11:00,75.5,54.4,30.16,SSW,196,1.0,7.0,48,0.00,FEW,,0.00,0.0,WeatherDisplay:10.37,2013-08-16 22:11:00,
2013-08-16 18:16:00,75.3,53.7,30.16,SSW,198,1.0,7.0,47,0.00,FEW,,0.00,0.0,WeatherDisplay:10.37,2013-08-16 22:16:00,
2013-08-16 18:21:00,75.3,54.3,30.16,SSW,206,0.0,6.0,48,0.00,FEW,,0.00,0.0,WeatherDisplay:10.37,2013-08-16 22:21:00,
2013-08-16 18:26:00,75.1,54.1,30.16,SSW,211,1.0,6.0,48,0.00,FEW,,0.00,0.0,WeatherDisplay:10.37,2013-08-16 22:26:00,
2013-08-16 18:31:00,74.8,53.8,30.16,SSW,208,1.0,6.0,48,0.00,FEW,,0.00,0.0,WeatherDisplay:10.37,2013-08-16 22:31:00,
2013-08-16 18:36:00,74.4,54.0,30.16,SSW,206,1.0,8.0,49,0.00,FEW,,0.00,0.0,WeatherDisplay:10.37,2013-08-16 22:36:00,
2013-08-16 18:41:00,74.6,54.2,30.16,SSW,211,0.0,3.0,49,0.00,FEW,,0.00,0.0,WeatherDisplay:10.37,2013-08-16 22:41:00,
2013-08-16 18:46:00,74.6,54.2,30.15,SW,214,1.0,6.0,49,0.00,FEW,,0.00,0.0,WeatherDisplay:10.37,2013-08-16 22:46:00,
2013-08-16 18:51:00,74.2,53.8,30.15,South,179,0.0,6.0,49,0.00,FEW,,0.00,0.0,WeatherDisplay:10.37,2013-08-16 22:51:00,
2013-08-16 18:56:00,73.9,54.1,30.15,South,179,0.0,5.0,50,0.00,FEW,,0.00,0.0,WeatherDisplay:10.37,2013-08-16 22:56:00,
2013-08-16 19:01:00,73.7,53.9,30.15,SSW,211,0.0,5.0,50,0.00,FEW,,0.00,0.0,WeatherDisplay:10.37,2013-08-16 23:01:00,
2013-08-16 19:06:00,73.5,54.2,30.15,SSW,198,0.0,3.0,51,0.00,FEW,,0.00,0.0,WeatherDisplay:10.37,2013-08-16 23:06:00,
2013-08-16 19:11:00,73.2,54.5,30.15,SSW,196,0.0,3.0,52,0.00,FEW,,0.00,0.0,WeatherDisplay:10.37,2013-08-16 23:11:00,
2013-08-16 19:16:00,72.9,54.2,30.16,SSW,196,0.0,3.0,52,0.00,FEW,,0.00,0.0,WeatherDisplay:10.37,2013-08-16 23:16:00,
2013-08-16 19:21:00,72.8,54.1,30.16,South,180,0.0,6.0,52,0.00,FEW,,0.00,0.0,WeatherDisplay:10.37,2013-08-16 23:21:00,
2013-08-16 19:26:00,72.5,54.4,30.16,SSE,147,0.0,3.0,53,0.00,FEW,,0.00,0.0,WeatherDisplay:10.37,2013-08-16 23:26:00,
2013-08-16 19:31:00,72.3,54.2,30.16,SSE,149,0.0,3.0,53,0.00,FEW,,0.00,0.0,WeatherDisplay:10.37,2013-08-16 23:31:00,
2013-08-16 19:36:00,72.1,54.0,30.16,SSE,161,0.0,3.0,53,0.00,FEW,,0.00,0.0,WeatherDisplay:10.37,2013-08-16 23:36:00,
2013-08-16 19:41:00,71.8,54.3,30.16,South,176,1.0,5.0,54,0.00,FEW,,0.00,0.0,WeatherDisplay:10.37,2013-08-16 23:41:00,
2013-08-16 19:46:00,71.6,54.1,30.16,South,180,1.0,3.0,54,0.00,FEW,,0.00,0.0,WeatherDisplay:10.37,2013-08-16 23:46:00,
2013-08-16 19:51:00,71.4,54.4,30.16,South,187,0.0,2.0,55,0.00,FEW,,0.00,0.0,WeatherDisplay:10.37,2013-08-16 23:51:00,
2013-08-16 19:56:00,71.1,54.6,30.16,South,188,0.0,1.0,56,0.00,FEW,,0.00,0.0,WeatherDisplay:10.37,2013-08-16 23:56:00,
2013-08-16 20:01:00,70.8,54.3,30.16,South,188,0.0,4.0,56,0.00,FEW,,0.00,0.0,WeatherDisplay:10.37,2013-08-17 00:01:00,
2013-08-16 20:06:00,70.4,54.4,30.16,South,189,0.0,5.0,57,0.00,FEW,,0.00,0.0,WeatherDisplay:10.37,2013-08-17 00:06:00,
2013-08-16 20:11:00,70.1,54.6,30.16,South,190,1.0,4.0,58,0.00,FEW,,0.00,0.0,WeatherDisplay:10.37,2013-08-17 00:11:00,
2013-08-16 20:16:00,69.9,54.4,30.16,SSW,204,0.0,5.0,58,0.00,FEW,,0.00,0.0,WeatherDisplay:10.37,2013-08-17 00:16:00,
2013-08-16 20:21:00,69.6,54.2,30.16,SSW,203,1.0,5.0,58,0.00,FEW,,0.00,0.0,WeatherDisplay:10.37,2013-08-17 00:21:00,
2013-08-16 20:26:00,69.2,54.3,30.16,South,189,0.0,4.0,59,0.00,FEW,,0.00,0.0,WeatherDisplay:10.37,2013-08-17 00:26:00,
2013-08-16 20:31:00,68.9,54.0,30.17,South,189,0.0,4.0,59,0.00,FEW,,0.00,0.0,WeatherDisplay:10.37,2013-08-17 00:31:00,
2013-08-16 20:36:00,68.7,53.8,30.17,South,187,1.0,5.0,59,0.00,FEW,,0.00,0.0,WeatherDisplay:10.37,2013-08-17 00:36:00,
2013-08-16 20:41:00,68.5,53.6,30.17,SSW,196,1.0,5.0,59,0.00,FEW,,0.00,0.0,WeatherDisplay:10.37,2013-08-17 00:41:00,
2013-08-16 20:46:00,68.2,53.8,30.16,SSW,207,0.0,6.0,60,0.00,FEW,,0.00,0.0,WeatherDisplay:10.37,2013-08-17 00:46:00,
2013-08-16 20:56:00,67.9,53.0,30.16,SSW,209,1.0,3.0,59,0.00,FEW,,0.00,0.0,WeatherDisplay:10.37,2013-08-17 00:56:00,
2013-08-16 21:01:00,67.7,52.9,30.17,SSW,209,0.0,2.0,59,0.00,FEW,,0.00,0.0,WeatherDisplay:10.37,2013-08-17 01:01:00,
2013-08-16 21:06:00,67.6,53.2,30.17,SSW,209,1.0,4.0,60,0.00,FEW,,0.00,0.0,WeatherDisplay:10.37,2013-08-17 01:06:00,
2013-08-16 21:11:00,67.4,53.0,30.17,SSW,209,0.0,2.0,60,0.00,FEW,,0.00,0.0,WeatherDisplay:10.37,2013-08-17 01:11:00,
2013-08-16 21:16:00,67.2,53.3,30.18,SSW,209,1.0,4.0,61,0.00,FEW,,0.00,0.0,WeatherDisplay:10.37,2013-08-17 01:16:00,
2013-08-16 21:21:00,66.9,53.0,30.18,SSW,208,1.0,4.0,61,0.00,FEW,,0.00,0.0,WeatherDisplay:10.37,2013-08-17 01:21:00,
2013-08-16 21:26:00,66.9,53.0,30.18,SSW,204,2.0,6.0,61,0.00,FEW,,0.00,0.0,WeatherDisplay:10.37,2013-08-17 01:26:00,
2013-08-16 21:36:00,66.6,52.3,30.18,SW,217,0.0,3.0,60,0.00,FEW,,0.00,0.0,WeatherDisplay:10.37,2013-08-17 01:36:00,
2013-08-16 21:46:00,66.6,51.8,30.18,SSW,208,0.0,6.0,59,0.00,FEW,,0.00,0.0,WeatherDisplay:10.37,2013-08-17 01:46:00,
2013-08-16 21:51:00,66.4,51.6,30.18,SSW,208,0.0,3.0,59,0.00,FEW,,0.00,0.0,WeatherDisplay:10.37,2013-08-17 01:51:00,
2013-08-16 21:56:00,66.4,51.2,30.18,SSW,210,1.0,5.0,58,0.00,FEW,,0.00,0.0,WeatherDisplay:10.37,2013-08-17 01:56:00,
2013-08-16 22:01:00,66.4,51.6,30.19,SW,220,1.0,5.0,59,0.00,FEW,,0.00,0.0,WeatherDisplay:10.37,2013-08-17 02:01:00,
2013-08-16 22:06:00,66.2,51.4,30.19,SW,223,0.0,4.0,59,0.00,FEW,,0.00,0.0,WeatherDisplay:10.37,2013-08-17 02:06:00,
2013-08-16 22:11:00,65.9,51.2,30.19,SW,226,0.0,5.0,59,0.00,FEW,,0.00,0.0,WeatherDisplay:10.37,2013-08-17 02:11:00,
2013-08-16 22:16:00,65.9,50.7,30.18,SW,228,0.0,5.0,58,0.00,FEW,,0.00,0.0,WeatherDisplay:10.37,2013-08-17 02:16:00,
2013-08-16 22:21:00,65.9,50.7,30.18,SW,229,0.0,3.0,58,0.00,FEW,,0.00,0.0,WeatherDisplay:10.37,2013-08-17 02:21:00,
2013-08-16 22:26:00,65.7,50.0,30.18,SW,228,1.0,6.0,57,0.00,FEW,,0.00,0.0,WeatherDisplay:10.37,2013-08-17 02:26:00,
2013-08-16 22:31:00,65.9,50.2,30.19,SW,227,0.0,3.0,57,0.00,FEW,,0.00,0.0,WeatherDisplay:10.37,2013-08-17 02:31:00,
2013-08-16 22:36:00,65.9,50.2,30.19,SW,227,0.0,3.0,57,0.00,FEW,,0.00,0.0,WeatherDisplay:10.37,2013-08-17 02:36:00,
2013-08-16 22:41:00,65.7,50.5,30.19,SW,231,0.0,6.0,58,0.00,FEW,,0.00,0.0,WeatherDisplay:10.37,2013-08-17 02:41:00,
2013-08-16 22:46:00,65.7,50.0,30.19,SW,231,1.0,5.0,57,0.00,FEW,,0.00,0.0,WeatherDisplay:10.37,2013-08-17 02:46:00,
2013-08-16 22:51:00,65.6,50.0,30.19,SW,231,0.0,2.0,57,0.00,FEW,,0.00,0.0,WeatherDisplay:10.37,2013-08-17 02:51:00,
2013-08-16 22:56:00,65.6,50.0,30.19,SW,231,0.0,1.0,57,0.00,FEW,,0.00,0.0,WeatherDisplay:10.37,2013-08-17 02:56:00,
2013-08-16 23:01:00,65.4,50.2,30.19,SW,231,0.0,0.0,58,0.00,FEW,,0.00,0.0,WeatherDisplay:10.37,2013-08-17 03:01:00,
2013-08-16 23:06:00,65.2,50.5,30.19,SW,231,0.0,0.0,59,0.00,FEW,,0.00,0.0,WeatherDisplay:10.37,2013-08-17 03:06:00,
2013-08-16 23:11:00,65.1,50.4,30.19,SW,231,0.0,0.0,59,0.00,FEW,,0.00,0.0,WeatherDisplay:10.37,2013-08-17 03:11:00,
2013-08-16 23:16:00,64.9,50.2,30.19,SW,231,2.0,4.0,59,0.00,FEW,,0.00,0.0,WeatherDisplay:10.37,2013-08-17 03:16:00,
2013-08-16 23:21:00,64.8,50.6,30.19,SW,231,0.0,5.0,60,0.00,FEW,,0.00,0.0,WeatherDisplay:10.37,2013-08-17 03:21:00,
2013-08-16 23:26:00,64.8,51.0,30.19,SW,231,1.0,5.0,61,0.00,FEW,,0.00,0.0,WeatherDisplay:10.37,2013-08-17 03:26:00,
2013-08-16 23:31:00,64.8,51.5,30.19,SW,231,1.0,3.0,62,0.00,FEW,,0.00,0.0,WeatherDisplay:10.37,2013-08-17 03:31:00,
2013-08-16 23:36:00,64.8,51.9,30.19,SW,231,0.0,2.0,63,0.00,FEW,,0.00,0.0,WeatherDisplay:10.37,2013-08-17 03:36:00,
2013-08-16 23:41:00,64.8,52.3,30.19,SW,231,0.0,3.0,64,0.00,FEW,,0.00,0.0,WeatherDisplay:10.37,2013-08-17 03:41:00,
2013-08-16 23:46:00,64.8,52.3,30.20,SW,231,0.0,0.0,64,0.00,FEW,,0.00,0.0,WeatherDisplay:10.37,2013-08-17 03:46:00,
2013-08-16 23:51:00,64.6,53.0,30.20,SW,231,1.0,4.0,66,0.00,FEW,,0.00,0.0,WeatherDisplay:10.37,2013-08-17 03:51:00,
2013-08-16 23:56:00,64.6,53.8,30.20,SW,231,0.0,5.0,68,0.00,FEW,,0.00,0.0,WeatherDisplay:10.37,2013-08-17 03:56:00,